Regional Weather Roundup
Issued by NWS Charleston, WV

Home | Current Version | Previous Version | Graphics & Text | Print | Product List | Glossary On
Versions: 1 2 3 4 5 6 7 8 9 10 11 12 13 14 15 16 17 18 19 20 21 22 23 24 25 26 27 28 29 30 31 32 33 34 35 36 37 38 39 40 41 42 43 44 45 46 47 48 49 50
242
ASUS41 KRLX 061110
RWRRLX
West Virginia Regional Weather Roundup
National Weather Service Charleston WV
600 AM EST SAT FEB 06 2016

Note: "fair" indicates few or no clouds below 12,000 feet with no
significant weather and/or obstructions to visibility.

WVZ003-061200-
Northern Panhandle of West Virginia

CITY           SKY/WX    TMP DP  RH WIND       PRES   REMARKS
WHEELING       CLOUDY    30  16  56 S7        30.30R
$$

WVZ009-061200-
Northwest West Virginia

CITY           SKY/WX    TMP DP  RH WIND       PRES   REMARKS
PARKERSBURG      N/A     28  17  63 S7        30.37S
$$

WVZ006-061200-
Western West Virginia

CITY           SKY/WX    TMP DP  RH WIND       PRES   REMARKS
HUNTINGTON       N/A     28  17  63 S5        30.35S
$$

WVZ015-061200-
West Central West Virginia

CITY           SKY/WX    TMP DP  RH WIND       PRES   REMARKS
CHARLESTON       N/A     25  21  85 CALM      30.36R
$$

WVZ022-031-061200-
North Central West Virginia

CITY           SKY/WX    TMP DP  RH WIND       PRES   REMARKS
CLARKSBURG       N/A     27  16  63 CALM      30.34S
MORGANTOWN       N/A     28  14  55 S3        30.34S
$$

WVZ025-035-042-045-061200-
Southern West Virginia

CITY           SKY/WX    TMP DP  RH WIND       PRES   REMARKS
BECKLEY          N/A     23  15  71 CALM      30.32R
LOGAN            N/A     30  16  55 S3        30.34S
BLUEFIELD        N/A     24  10  55 W5        30.32R
LEWISBURG        N/A     21  17  86 CALM      30.34R
$$

WVZ047-061200-
Northern Mountains of West Virginia

CITY           SKY/WX    TMP DP  RH WIND       PRES   REMARKS
ELKINS           N/A     18  14  84 CALM      30.34R
$$

WVZ052-061200-
Eastern Panhandle of West Virginia

CITY           SKY/WX    TMP DP  RH WIND       PRES   REMARKS
MARTINSBURG      N/A     22  16  78 S3        30.39S
PETERSBURG       N/A     22  19  90 CALM      30.39R
$$




USA.gov is the U.S. government's official web portal to all federal, state and local government web resources and services.